Madison, WI

4:24 AM CDT on April 24, 2018 (GMT -0500)
Dane County Regional-Truax

Weather History for KMSN - September, 2013

Change the Weather History Date:

Thursday, September 5, 2013

  Actual Average Record
Temperature  
Mean Temperature 68 °F 65 °F  
Max Temperature 77 °F 76 °F 93 °F (1954)
Min Temperature 58 °F 55 °F 36 °F (1962)
Degree Days  
Heating Degree Days 0 3  
Month to date heating degree days 9 11  
Since 1 July heating degree days 39 48  
Cooling Degree Days 3 3  
Month to date cooling degree days 13 15  
Year to date cooling degree days 626 528  
Growing Degree Days 18 (Base 50)    
Moisture  
Dew Point 58 °F    
Average Humidity 73    
Maximum Humidity 93    
Minimum Humidity 53    
Precipitation  
Precipitation 0.00 in 0.11 in 1.57 in (1947)
Month to date precipitation 0.00 0.57  
Year to date precipitation 36.48 25.39  
Snow  
Snow 0.00 in 0.00 in 0.00 in ()
Month to date snowfall 0.0 0.0  
Since 1 July snowfall 0.0 0.0  
Since 1 September snowfall 0.0 0.0  
Snow Depth 0.00 in    
Sea Level Pressure  
Sea Level Pressure 30.21 in    
Wind  
Wind Speed 7 mph (East)    
Max Wind Speed 15 mph    
Max Gust Speed 20 mph    
Visibility 10 miles    
Events      
T = Trace of Precipitation, MM = Missing Value Source: NWS Daily Summary

Daily Weather History Graph

Daily Weather History Graph

Search for Another Location

Airport or City:

Astronomy

Sep. 05, 2013 Rise Set
Actual Time 6:26 AM CDT 7:24 PM CDT
Civil Twilight 5:57 AM CDT 7:53 PM CDT
Nautical Twilight 5:22 AM CDT 8:28 PM CDT
Astronomical Twilight 4:46 AM CDT 9:04 PM CDT
Moon 6:39 AM CDT (9/5) 7:13 PM CDT (9/5)
Length of Visible Light 13h 56m
Length of Day
12h 58m
New Moon, 0% of the Moon is Illuminated
Sep 5
New Moon
Sep 12
First Quarter
Sep 19
Full
Sep 26
Last Quarter
Oct 4
New

Hourly Weather History & Observations

Time (CDT) Temp. Dew Point Humidity Pressure Visibility Wind Dir Wind Speed Gust Speed Precip Events Conditions
12:26 AM 64.4 °F 62.6 °F 94% 30.14 in 10.0 mi ENE 4.6 mph - N/A   Scattered Clouds
12:37 AM 64.4 °F 62.6 °F 94% 30.14 in 10.0 mi ENE 4.6 mph - N/A   Mostly Cloudy
12:53 AM 64.0 °F 62.1 °F 93% 30.14 in 10.0 mi ENE 6.9 mph - N/A   Overcast
1:53 AM 64.9 °F 62.1 °F 90% 30.15 in 10.0 mi East 6.9 mph - N/A   Overcast
2:53 AM 64.9 °F 62.1 °F 90% 30.15 in 9.0 mi East 8.1 mph - N/A   Overcast
3:38 AM 64.4 °F 62.6 °F 94% 30.17 in 10.0 mi ESE 5.8 mph - N/A   Scattered Clouds
3:53 AM 64.9 °F 62.1 °F 90% 30.16 in 10.0 mi ESE 3.5 mph - N/A   Mostly Cloudy
4:02 AM 64.4 °F 62.6 °F 94% 30.18 in 10.0 mi ENE 4.6 mph - N/A   Mostly Cloudy
4:21 AM 64.4 °F 62.6 °F 94% 30.19 in 10.0 mi ENE 4.6 mph - N/A   Mostly Cloudy
4:46 AM 62.6 °F 60.8 °F 94% 30.19 in 10.0 mi ENE 4.6 mph - N/A   Scattered Clouds
4:53 AM 63.0 °F 61.0 °F 93% 30.18 in 10.0 mi East 3.5 mph - N/A   Partly Cloudy
5:48 AM 64.4 °F 60.8 °F 88% 30.21 in 10.0 mi ENE 6.9 mph - N/A   Overcast
5:53 AM 64.0 °F 61.0 °F 90% 30.20 in 10.0 mi ENE 10.4 mph - N/A   Overcast
6:44 AM 62.6 °F 59.0 °F 88% 30.24 in 10.0 mi East 4.6 mph - N/A   Mostly Cloudy
6:53 AM 63.0 °F 57.9 °F 84% 30.23 in 10.0 mi East 6.9 mph - N/A   Mostly Cloudy
7:53 AM 64.0 °F 57.9 °F 80% 30.24 in 10.0 mi ENE 8.1 mph - N/A   Scattered Clouds
8:53 AM 64.9 °F 57.0 °F 75% 30.25 in 10.0 mi ENE 10.4 mph - N/A   Mostly Cloudy
9:37 AM 66.2 °F 57.2 °F 73% 30.27 in 10.0 mi ESE 13.8 mph - N/A   Mostly Cloudy
9:53 AM 68.0 °F 57.0 °F 68% 30.27 in 10.0 mi East 12.7 mph - N/A   Mostly Cloudy
10:06 AM 68.0 °F 57.2 °F 68% 30.27 in 10.0 mi ENE 12.7 mph 17.3 mph N/A   Mostly Cloudy
10:53 AM 70.0 °F 55.9 °F 61% 30.27 in 10.0 mi East 11.5 mph - N/A   Mostly Cloudy
11:53 AM 72.0 °F 57.0 °F 59% 30.27 in 10.0 mi East 12.7 mph - N/A   Scattered Clouds
12:53 PM 72.0 °F 57.0 °F 59% 30.26 in 10.0 mi Variable 6.9 mph - N/A   Scattered Clouds
1:53 PM 73.9 °F 57.9 °F 57% 30.25 in 10.0 mi East 6.9 mph 18.4 mph N/A   Mostly Cloudy
2:53 PM 75.0 °F 57.0 °F 53% 30.23 in 10.0 mi ESE 5.8 mph - N/A   Partly Cloudy
3:53 PM 75.0 °F 57.0 °F 53% 30.21 in 10.0 mi Calm Calm - N/A   Partly Cloudy
4:53 PM 75.9 °F 57.0 °F 52% 30.20 in 10.0 mi Variable 3.5 mph - N/A   Clear
5:53 PM 73.9 °F 55.9 °F 53% 30.20 in 10.0 mi ESE 10.4 mph - N/A   Partly Cloudy
6:53 PM 71.1 °F 54.0 °F 55% 30.20 in 10.0 mi ESE 10.4 mph - N/A   Clear
7:53 PM 64.9 °F 54.0 °F 68% 30.21 in 10.0 mi ESE 8.1 mph - N/A   Clear
8:53 PM 63.0 °F 52.0 °F 67% 30.23 in 10.0 mi ESE 6.9 mph - N/A   Clear
9:53 PM 61.0 °F 48.9 °F 64% 30.24 in 10.0 mi SE 6.9 mph - N/A   Clear
10:53 PM 60.1 °F 48.0 °F 64% 30.23 in 10.0 mi SE 5.8 mph - N/A   Clear
11:53 PM 59.0 °F 46.9 °F 64% 30.22 in 10.0 mi SE 4.6 mph - N/A   Clear